Year,Month,Day,Hour,Minute,Value (Times are PST for temperature in C)
2015,06,27,00,00,18.10
2015,06,27,00,01,18.00
2015,06,27,00,02,18.00
2015,06,27,00,03,17.90
2015,06,27,00,04,17.90
2015,06,27,00,05,17.90
2015,06,27,00,06,17.80
2015,06,27,00,07,17.80
2015,06,27,00,08,17.80
2015,06,27,00,09,17.70
2015,06,27,00,10,17.70
2015,06,27,00,11,17.70
2015,06,27,00,12,17.70
2015,06,27,00,13,17.70
2015,06,27,00,14,17.70
2015,06,27,00,15,17.60
2015,06,27,00,16,17.60
2015,06,27,00,17,17.60
2015,06,27,00,18,17.60
2015,06,27,00,19,17.60
2015,06,27,00,20,17.50
2015,06,27,00,21,17.50
2015,06,27,00,22,17.40
2015,06,27,00,23,17.40
2015,06,27,00,24,17.40
2015,06,27,00,25,17.40
2015,06,27,00,26,17.30
2015,06,27,00,27,17.30
2015,06,27,00,28,17.30
2015,06,27,00,29,17.30
2015,06,27,00,30,17.30
2015,06,27,00,31,17.30
2015,06,27,00,32,17.30
2015,06,27,00,33,17.20
2015,06,27,00,34,17.20
2015,06,27,00,35,17.20
2015,06,27,00,36,17.20
2015,06,27,00,37,17.20
2015,06,27,00,38,17.10
2015,06,27,00,39,17.10
2015,06,27,00,40,17.10
2015,06,27,00,41,17.10
2015,06,27,00,42,17.10
2015,06,27,00,43,17.00
2015,06,27,00,44,17.00
2015,06,27,00,45,17.00
2015,06,27,00,46,17.00
2015,06,27,00,47,16.90
2015,06,27,00,48,16.90
2015,06,27,00,49,16.90
2015,06,27,00,50,16.90
2015,06,27,00,51,16.90
2015,06,27,00,52,16.90
2015,06,27,00,53,16.90
2015,06,27,00,54,16.80
2015,06,27,00,55,16.80
2015,06,27,00,56,16.80
2015,06,27,00,57,16.80
2015,06,27,00,58,16.80
2015,06,27,00,59,16.80
2015,06,27,01,00,16.70
2015,06,27,01,01,16.70
2015,06,27,01,02,16.70
2015,06,27,01,03,16.70
2015,06,27,01,04,16.70
2015,06,27,01,05,16.70
2015,06,27,01,06,16.70
2015,06,27,01,07,16.70
2015,06,27,01,08,16.60
2015,06,27,01,09,16.60
2015,06,27,01,10,16.60
2015,06,27,01,11,16.60
2015,06,27,01,12,16.60
2015,06,27,01,13,16.60
2015,06,27,01,14,16.60
2015,06,27,01,15,16.60
2015,06,27,01,16,16.50
2015,06,27,01,17,16.50
2015,06,27,01,18,16.50
2015,06,27,01,19,16.50
2015,06,27,01,20,16.40
2015,06,27,01,21,16.40
2015,06,27,01,22,16.40
2015,06,27,01,23,16.40
2015,06,27,01,24,16.40
2015,06,27,01,25,16.40
2015,06,27,01,26,16.40
2015,06,27,01,27,16.30
2015,06,27,01,28,16.30
2015,06,27,01,29,16.30
2015,06,27,01,30,16.30
2015,06,27,01,31,16.30
2015,06,27,01,32,16.30
2015,06,27,01,33,16.30
2015,06,27,01,34,16.30
2015,06,27,01,35,16.30
2015,06,27,01,36,16.30
2015,06,27,01,37,16.30
2015,06,27,01,38,16.30
2015,06,27,01,39,16.30
2015,06,27,01,40,16.30
2015,06,27,01,41,16.20
2015,06,27,01,42,16.30
2015,06,27,01,43,16.20
2015,06,27,01,44,16.20
2015,06,27,01,45,16.20
2015,06,27,01,46,16.20
2015,06,27,01,47,16.20
2015,06,27,01,48,16.20
2015,06,27,01,49,16.30
2015,06,27,01,50,16.30
2015,06,27,01,51,16.30
2015,06,27,01,52,16.30
2015,06,27,01,53,16.30
2015,06,27,01,54,16.30
2015,06,27,01,55,16.40
2015,06,27,01,56,16.40
2015,06,27,01,57,16.40
2015,06,27,01,58,16.40
2015,06,27,01,59,16.50
2015,06,27,02,00,16.50
2015,06,27,02,01,16.60
2015,06,27,02,02,16.70
2015,06,27,02,03,16.80
2015,06,27,02,04,16.80
2015,06,27,02,05,16.80
2015,06,27,02,06,16.90
2015,06,27,02,07,16.90
2015,06,27,02,08,16.90
2015,06,27,02,09,16.90
2015,06,27,02,10,16.90
2015,06,27,02,11,16.90
2015,06,27,02,12,17.00
2015,06,27,02,13,17.00
2015,06,27,02,14,17.10
2015,06,27,02,15,17.10
2015,06,27,02,16,17.20
2015,06,27,02,17,17.20
2015,06,27,02,18,17.20
2015,06,27,02,19,17.20
2015,06,27,02,20,17.20
2015,06,27,02,21,17.20
2015,06,27,02,22,17.20
2015,06,27,02,23,17.20
2015,06,27,02,24,17.20
2015,06,27,02,25,17.20
2015,06,27,02,26,17.20
2015,06,27,02,27,17.20
2015,06,27,02,28,17.20
2015,06,27,02,29,17.20
2015,06,27,02,30,17.20
2015,06,27,02,31,17.20
2015,06,27,02,32,17.20
2015,06,27,02,33,17.20
2015,06,27,02,34,17.20
2015,06,27,02,35,17.20
2015,06,27,02,36,17.20
2015,06,27,02,37,17.20
2015,06,27,02,38,17.10
2015,06,27,02,39,17.10
2015,06,27,02,40,17.20
2015,06,27,02,41,17.20
2015,06,27,02,42,17.20
2015,06,27,02,43,17.20
2015,06,27,02,44,17.20
2015,06,27,02,45,17.10
2015,06,27,02,46,17.10
2015,06,27,02,47,17.10
2015,06,27,02,48,17.10
2015,06,27,02,49,17.10
2015,06,27,02,50,17.10
2015,06,27,02,51,17.10
2015,06,27,02,52,17.10
2015,06,27,02,53,17.10
2015,06,27,02,54,17.00
2015,06,27,02,55,17.00
2015,06,27,02,56,17.00
2015,06,27,02,57,17.00
2015,06,27,02,58,17.00
2015,06,27,02,59,17.00
2015,06,27,03,00,17.00
2015,06,27,03,01,17.00
2015,06,27,03,02,17.00
2015,06,27,03,03,17.00
2015,06,27,03,04,17.00
2015,06,27,03,05,17.00
2015,06,27,03,06,16.90
2015,06,27,03,07,16.90
2015,06,27,03,08,16.90
2015,06,27,03,09,16.90
2015,06,27,03,10,16.80
2015,06,27,03,11,16.80
2015,06,27,03,12,16.80
2015,06,27,03,13,16.70
2015,06,27,03,14,16.70
2015,06,27,03,15,16.70
2015,06,27,03,16,16.70
2015,06,27,03,17,16.70
2015,06,27,03,18,16.70
2015,06,27,03,19,16.70
2015,06,27,03,20,16.70
2015,06,27,03,21,16.70
2015,06,27,03,22,16.60
2015,06,27,03,23,16.60
2015,06,27,03,24,16.60
2015,06,27,03,25,16.60
2015,06,27,03,26,16.60
2015,06,27,03,27,16.50
2015,06,27,03,28,16.50
2015,06,27,03,29,16.50
2015,06,27,03,30,16.50
2015,06,27,03,31,16.50
2015,06,27,03,32,16.50
2015,06,27,03,33,16.50
2015,06,27,03,34,16.50
2015,06,27,03,35,16.50
2015,06,27,03,36,16.50
2015,06,27,03,37,16.40
2015,06,27,03,38,16.40
2015,06,27,03,39,16.40
2015,06,27,03,40,16.30
2015,06,27,03,41,16.30
2015,06,27,03,42,16.30
2015,06,27,03,43,16.20
2015,06,27,03,44,16.20
2015,06,27,03,45,16.10
2015,06,27,03,46,16.10
2015,06,27,03,47,16.10
2015,06,27,03,48,16.00
2015,06,27,03,49,16.00
2015,06,27,03,50,15.90
2015,06,27,03,51,16.00
2015,06,27,03,52,16.00
2015,06,27,03,53,16.00
2015,06,27,03,54,16.00
2015,06,27,03,55,16.10
2015,06,27,03,56,16.10
2015,06,27,03,57,16.10
2015,06,27,03,58,16.10
2015,06,27,03,59,16.20
2015,06,27,04,00,16.20
2015,06,27,04,01,16.20
2015,06,27,04,02,16.20
2015,06,27,04,03,16.20
2015,06,27,04,04,16.10
2015,06,27,04,05,16.10
2015,06,27,04,06,16.10
2015,06,27,04,07,16.10
2015,06,27,04,08,16.10
2015,06,27,04,09,16.10
2015,06,27,04,10,16.10
2015,06,27,04,11,16.10
2015,06,27,04,12,16.10
2015,06,27,04,13,16.10
2015,06,27,04,14,16.10
2015,06,27,04,15,16.10
2015,06,27,04,16,16.10
2015,06,27,04,17,16.10
2015,06,27,04,18,16.00
2015,06,27,04,19,16.00
2015,06,27,04,20,16.00
2015,06,27,04,21,16.00
2015,06,27,04,22,16.00
2015,06,27,04,23,16.00
2015,06,27,04,24,16.00
2015,06,27,04,25,15.90
2015,06,27,04,26,15.90
2015,06,27,04,27,15.90
2015,06,27,04,28,15.90
2015,06,27,04,29,15.90
2015,06,27,04,30,15.90
2015,06,27,04,31,15.80
2015,06,27,04,32,15.80
2015,06,27,04,33,15.80
2015,06,27,04,34,15.80
2015,06,27,04,35,15.80
2015,06,27,04,36,15.80
2015,06,27,04,37,15.80
2015,06,27,04,38,15.80
2015,06,27,04,39,15.70
2015,06,27,04,40,15.70
2015,06,27,04,41,15.70
2015,06,27,04,42,15.70
2015,06,27,04,43,15.70
2015,06,27,04,44,15.70
2015,06,27,04,45,15.70
2015,06,27,04,46,15.70
2015,06,27,04,47,15.70
2015,06,27,04,48,15.70
2015,06,27,04,49,15.60
2015,06,27,04,50,15.60
2015,06,27,04,51,15.60
2015,06,27,04,52,15.60
2015,06,27,04,53,15.60
2015,06,27,04,54,15.60
2015,06,27,04,55,15.60
2015,06,27,04,56,15.60
2015,06,27,04,57,15.60
2015,06,27,04,58,15.60
2015,06,27,04,59,15.60
2015,06,27,05,00,15.60
2015,06,27,05,01,15.50
2015,06,27,05,02,15.50
2015,06,27,05,03,15.50
2015,06,27,05,04,15.50
2015,06,27,05,05,15.50
2015,06,27,05,06,15.50
2015,06,27,05,07,15.40
2015,06,27,05,08,15.40
2015,06,27,05,09,15.40
2015,06,27,05,10,15.40
2015,06,27,05,11,15.40
2015,06,27,05,12,15.40
2015,06,27,05,13,15.40
2015,06,27,05,14,15.40
2015,06,27,05,15,15.40
2015,06,27,05,16,15.40
2015,06,27,05,17,15.40
2015,06,27,05,18,15.40
2015,06,27,05,19,15.40
2015,06,27,05,20,15.40
2015,06,27,05,21,15.40
2015,06,27,05,22,15.40
2015,06,27,05,23,15.40
2015,06,27,05,24,15.30
2015,06,27,05,25,15.30
2015,06,27,05,26,15.30
2015,06,27,05,27,15.30
2015,06,27,05,28,15.30
2015,06,27,05,29,15.30
2015,06,27,05,30,15.30
2015,06,27,05,31,15.20
2015,06,27,05,32,15.20
2015,06,27,05,33,15.20
2015,06,27,05,34,15.20
2015,06,27,05,35,15.10
2015,06,27,05,36,15.10
2015,06,27,05,37,15.00
2015,06,27,05,38,15.00
2015,06,27,05,39,15.00
2015,06,27,05,40,14.90
2015,06,27,05,41,14.90
2015,06,27,05,42,14.90
2015,06,27,05,43,14.90
2015,06,27,05,44,15.00
2015,06,27,05,45,15.00
2015,06,27,05,46,15.00
2015,06,27,05,47,15.00
2015,06,27,05,48,15.00
2015,06,27,05,49,15.10
2015,06,27,05,50,15.10
2015,06,27,05,51,15.10
2015,06,27,05,52,15.10
2015,06,27,05,53,15.10
2015,06,27,05,54,15.10
2015,06,27,05,55,15.10
2015,06,27,05,56,15.20
2015,06,27,05,57,15.20
2015,06,27,05,58,15.20
2015,06,27,05,59,15.20
2015,06,27,06,00,15.20
2015,06,27,06,01,15.20
2015,06,27,06,02,15.10
2015,06,27,06,03,15.10
2015,06,27,06,04,15.10
2015,06,27,06,05,15.10
2015,06,27,06,06,15.10
2015,06,27,06,07,15.10
2015,06,27,06,08,15.10
2015,06,27,06,09,15.10
2015,06,27,06,10,15.10
2015,06,27,06,11,15.10
2015,06,27,06,12,15.10
2015,06,27,06,13,15.10
2015,06,27,06,14,15.10
2015,06,27,06,15,15.10
2015,06,27,06,16,15.10
2015,06,27,06,17,15.10
2015,06,27,06,18,15.10
2015,06,27,06,19,15.10
2015,06,27,06,20,15.10
2015,06,27,06,21,15.10
2015,06,27,06,22,15.10
2015,06,27,06,23,15.10
2015,06,27,06,24,15.10
2015,06,27,06,25,15.10
2015,06,27,06,26,15.10
2015,06,27,06,27,15.10
2015,06,27,06,28,15.10
2015,06,27,06,29,15.10
2015,06,27,06,30,15.10
2015,06,27,06,31,15.10
2015,06,27,06,32,15.10
2015,06,27,06,33,15.10
2015,06,27,06,34,15.20
2015,06,27,06,35,15.20
2015,06,27,06,36,15.20
2015,06,27,06,37,15.20
2015,06,27,06,38,15.20
2015,06,27,06,39,15.20
2015,06,27,06,40,15.20
2015,06,27,06,41,15.20
2015,06,27,06,42,15.20
2015,06,27,06,43,15.20
2015,06,27,06,44,15.20
2015,06,27,06,45,15.20
2015,06,27,06,46,15.20
2015,06,27,06,47,15.20
2015,06,27,06,48,15.20
2015,06,27,06,49,15.30
2015,06,27,06,50,15.30
2015,06,27,06,51,15.30
2015,06,27,06,52,15.30
2015,06,27,06,53,15.30
2015,06,27,06,54,15.30
2015,06,27,06,55,15.30
2015,06,27,06,56,15.30
2015,06,27,06,57,15.30
2015,06,27,06,58,15.40
2015,06,27,06,59,15.40
2015,06,27,07,00,15.40
2015,06,27,07,01,15.40
2015,06,27,07,02,15.40
2015,06,27,07,03,15.40
2015,06,27,07,04,15.50
2015,06,27,07,05,15.50
2015,06,27,07,06,15.50
2015,06,27,07,07,15.60
2015,06,27,07,08,15.60
2015,06,27,07,09,15.60
2015,06,27,07,10,15.50
2015,06,27,07,11,15.50
2015,06,27,07,12,15.50
2015,06,27,07,13,15.50
2015,06,27,07,14,15.40
2015,06,27,07,15,15.40
2015,06,27,07,16,15.40
2015,06,27,07,17,15.40
2015,06,27,07,18,15.40
2015,06,27,07,19,15.40
2015,06,27,07,20,15.40
2015,06,27,07,21,15.30
2015,06,27,07,22,15.30
2015,06,27,07,23,15.30
2015,06,27,07,24,15.30
2015,06,27,07,25,15.30
2015,06,27,07,26,15.30
2015,06,27,07,27,15.30
2015,06,27,07,28,15.30
2015,06,27,07,29,15.30
2015,06,27,07,30,15.30
2015,06,27,07,31,15.30
2015,06,27,07,32,15.40
2015,06,27,07,33,15.40
2015,06,27,07,34,15.40
2015,06,27,07,35,15.40
2015,06,27,07,36,15.50
2015,06,27,07,37,15.40
2015,06,27,07,38,15.40
2015,06,27,07,39,15.40
2015,06,27,07,40,15.40
2015,06,27,07,41,15.40
2015,06,27,07,42,15.40
2015,06,27,07,43,15.40
2015,06,27,07,44,15.30
2015,06,27,07,45,15.30
2015,06,27,07,46,15.30
2015,06,27,07,47,15.30
2015,06,27,07,48,15.30
2015,06,27,07,49,15.30
2015,06,27,07,50,15.30
2015,06,27,07,51,15.20
2015,06,27,07,52,15.20
2015,06,27,07,53,15.20
2015,06,27,07,54,15.20
2015,06,27,07,55,15.20
2015,06,27,07,56,15.20
2015,06,27,07,57,15.20
2015,06,27,07,58,15.20
2015,06,27,07,59,15.20
2015,06,27,08,00,15.20
2015,06,27,08,01,15.20
2015,06,27,08,02,15.20
2015,06,27,08,03,15.20
2015,06,27,08,04,15.30
2015,06,27,08,05,15.40
2015,06,27,08,06,15.40
2015,06,27,08,07,15.50
2015,06,27,08,08,15.60
2015,06,27,08,09,15.70
2015,06,27,08,10,15.80
2015,06,27,08,11,15.90
2015,06,27,08,12,16.00
2015,06,27,08,13,16.00
2015,06,27,08,14,16.10
2015,06,27,08,15,16.10
2015,06,27,08,16,16.20
2015,06,27,08,17,16.20
2015,06,27,08,18,16.30
2015,06,27,08,19,16.40
2015,06,27,08,20,16.40
2015,06,27,08,21,16.50
2015,06,27,08,22,16.50
2015,06,27,08,23,16.60
2015,06,27,08,24,16.60
2015,06,27,08,25,16.60
2015,06,27,08,26,16.60
2015,06,27,08,27,16.70
2015,06,27,08,28,16.70
2015,06,27,08,29,16.70
2015,06,27,08,30,16.80
2015,06,27,08,31,16.80
2015,06,27,08,32,16.80
2015,06,27,08,33,16.80
2015,06,27,08,34,16.90
2015,06,27,08,35,17.00
2015,06,27,08,36,17.00
2015,06,27,08,37,17.10
2015,06,27,08,38,17.20
2015,06,27,08,39,17.30
2015,06,27,08,40,17.40
2015,06,27,08,41,17.40
2015,06,27,08,42,17.50
2015,06,27,08,43,17.50
2015,06,27,08,44,17.60
2015,06,27,08,45,17.70
2015,06,27,08,46,17.80
2015,06,27,08,47,17.80
2015,06,27,08,48,17.80
2015,06,27,08,49,17.90
2015,06,27,08,50,17.90
2015,06,27,08,51,18.00
2015,06,27,08,52,18.10
2015,06,27,08,53,18.20
2015,06,27,08,54,18.20
2015,06,27,08,55,18.20
2015,06,27,08,56,18.30
2015,06,27,08,57,18.30
2015,06,27,08,58,18.20
2015,06,27,08,59,18.20
2015,06,27,09,00,18.30
2015,06,27,09,01,18.30
2015,06,27,09,02,18.30
2015,06,27,09,03,18.40
2015,06,27,09,04,18.40
2015,06,27,09,05,18.40
2015,06,27,09,06,18.50
2015,06,27,09,07,18.60
2015,06,27,09,08,18.70
2015,06,27,09,09,18.80
2015,06,27,09,10,18.80
2015,06,27,09,11,18.90
2015,06,27,09,12,18.90
2015,06,27,09,13,19.00
2015,06,27,09,14,19.00
2015,06,27,09,15,19.10
2015,06,27,09,16,19.20
2015,06,27,09,17,19.30
2015,06,27,09,18,19.30
2015,06,27,09,19,19.40
2015,06,27,09,20,19.50
2015,06,27,09,21,19.60
2015,06,27,09,22,19.70
2015,06,27,09,23,19.80
2015,06,27,09,24,19.90
2015,06,27,09,25,20.00
2015,06,27,09,26,20.10
2015,06,27,09,27,20.20
2015,06,27,09,28,20.30
2015,06,27,09,29,20.40
2015,06,27,09,30,20.50
2015,06,27,09,31,20.50
2015,06,27,09,32,20.50
2015,06,27,09,33,20.50
2015,06,27,09,34,20.60
2015,06,27,09,35,20.70
2015,06,27,09,36,20.70
2015,06,27,09,37,20.70
2015,06,27,09,38,20.70
2015,06,27,09,39,20.80
2015,06,27,09,40,20.80
2015,06,27,09,41,20.80
2015,06,27,09,42,20.90
2015,06,27,09,43,21.00
2015,06,27,09,44,21.00
2015,06,27,09,45,21.10
2015,06,27,09,46,21.10
2015,06,27,09,47,21.10
2015,06,27,09,48,21.10
2015,06,27,09,49,21.10
2015,06,27,09,50,21.10
2015,06,27,09,51,21.10
2015,06,27,09,52,21.20
2015,06,27,09,53,21.20
2015,06,27,09,54,21.30
2015,06,27,09,55,21.40
2015,06,27,09,56,21.40
2015,06,27,09,57,21.40
2015,06,27,09,58,21.40
2015,06,27,09,59,21.30
2015,06,27,10,00,21.20
2015,06,27,10,01,21.20
2015,06,27,10,02,21.10
2015,06,27,10,03,21.10
2015,06,27,10,04,21.10
2015,06,27,10,05,21.10
2015,06,27,10,06,21.10
2015,06,27,10,07,21.10
2015,06,27,10,08,21.10
2015,06,27,10,09,21.10
2015,06,27,10,10,21.10
2015,06,27,10,11,21.10
2015,06,27,10,12,21.10
2015,06,27,10,13,21.10
2015,06,27,10,14,21.10
2015,06,27,10,15,21.20
2015,06,27,10,16,21.20
2015,06,27,10,17,21.30
2015,06,27,10,18,21.40
2015,06,27,10,19,21.50
2015,06,27,10,20,21.60
2015,06,27,10,21,21.70
2015,06,27,10,22,21.70
2015,06,27,10,23,21.70
2015,06,27,10,24,21.80
2015,06,27,10,25,21.80
2015,06,27,10,26,21.90
2015,06,27,10,27,22.00
2015,06,27,10,28,22.10
2015,06,27,10,29,22.20
2015,06,27,10,30,22.30
2015,06,27,10,31,22.40
2015,06,27,10,32,22.50
2015,06,27,10,33,22.50
2015,06,27,10,34,22.60
2015,06,27,10,35,22.70
2015,06,27,10,36,22.90
2015,06,27,10,37,23.00
2015,06,27,10,38,23.00
2015,06,27,10,39,23.10
2015,06,27,10,40,23.10
2015,06,27,10,41,23.00
2015,06,27,10,42,23.00
2015,06,27,10,43,22.90
2015,06,27,10,44,22.90
2015,06,27,10,45,22.90
2015,06,27,10,46,22.90
2015,06,27,10,47,22.90
2015,06,27,10,48,22.80
2015,06,27,10,49,22.80
2015,06,27,10,50,22.80
2015,06,27,10,51,22.80
2015,06,27,10,52,22.80
2015,06,27,10,53,22.80
2015,06,27,10,54,22.90
2015,06,27,10,55,23.00
2015,06,27,10,56,23.10
2015,06,27,10,57,23.20
2015,06,27,10,58,23.30
2015,06,27,10,59,23.40
2015,06,27,11,00,23.50
2015,06,27,11,01,23.70
2015,06,27,11,02,23.70
2015,06,27,11,03,23.80
2015,06,27,11,04,23.90
2015,06,27,11,05,24.00
2015,06,27,11,06,24.10
2015,06,27,11,07,24.20
2015,06,27,11,08,24.20
2015,06,27,11,09,24.30
2015,06,27,11,10,24.30
2015,06,27,11,11,24.30
2015,06,27,11,12,24.30
2015,06,27,11,13,24.20
2015,06,27,11,14,24.20
2015,06,27,11,15,24.10
2015,06,27,11,16,24.10
2015,06,27,11,17,24.00
2015,06,27,11,18,24.00
2015,06,27,11,19,23.90
2015,06,27,11,20,23.90
2015,06,27,11,21,24.00
2015,06,27,11,22,24.00
2015,06,27,11,23,24.10
2015,06,27,11,24,24.10
2015,06,27,11,25,24.10
2015,06,27,11,26,24.10
2015,06,27,11,27,24.10
2015,06,27,11,28,24.10
2015,06,27,11,29,24.10
2015,06,27,11,30,24.20
2015,06,27,11,31,24.20
2015,06,27,11,32,24.20
2015,06,27,11,33,24.20
2015,06,27,11,34,24.20
2015,06,27,11,35,24.20
2015,06,27,11,36,24.30
2015,06,27,11,37,24.30
2015,06,27,11,38,24.30
2015,06,27,11,39,24.30
2015,06,27,11,40,24.30
2015,06,27,11,41,24.30
2015,06,27,11,42,24.30
2015,06,27,11,43,24.30
2015,06,27,11,44,24.40
2015,06,27,11,45,24.50
2015,06,27,11,46,24.50
2015,06,27,11,47,24.60
2015,06,27,11,48,24.70
2015,06,27,11,49,24.70
2015,06,27,11,50,24.70
2015,06,27,11,51,24.70
2015,06,27,11,52,24.80
2015,06,27,11,53,24.90
2015,06,27,11,54,24.90
2015,06,27,11,55,25.00
2015,06,27,11,56,25.10
2015,06,27,11,57,25.20
2015,06,27,11,58,25.30
2015,06,27,11,59,25.40
2015,06,27,12,00,25.40
2015,06,27,12,01,25.40
2015,06,27,12,02,25.50
2015,06,27,12,03,25.50
2015,06,27,12,04,25.60
2015,06,27,12,05,25.60
2015,06,27,12,06,25.60
2015,06,27,12,07,25.70
2015,06,27,12,08,25.80
2015,06,27,12,09,25.90
2015,06,27,12,10,26.00
2015,06,27,12,11,26.00
2015,06,27,12,12,26.00
2015,06,27,12,13,26.10
2015,06,27,12,14,26.10
2015,06,27,12,15,26.00
2015,06,27,12,16,26.00
2015,06,27,12,17,26.10
2015,06,27,12,18,26.20
2015,06,27,12,19,26.30
2015,06,27,12,20,26.40
2015,06,27,12,21,26.50
2015,06,27,12,22,26.60
2015,06,27,12,23,26.70
2015,06,27,12,24,26.70
2015,06,27,12,25,26.70
2015,06,27,12,26,26.70
2015,06,27,12,27,26.70
2015,06,27,12,28,26.70
2015,06,27,12,29,26.80
2015,06,27,12,30,26.80
2015,06,27,12,31,26.80
2015,06,27,12,32,26.90
2015,06,27,12,33,26.90
2015,06,27,12,34,27.00
2015,06,27,12,35,27.10
2015,06,27,12,36,27.10
2015,06,27,12,37,27.20
2015,06,27,12,38,27.20
2015,06,27,12,39,27.20
2015,06,27,12,40,27.30
2015,06,27,12,41,27.30
2015,06,27,12,42,27.20
2015,06,27,12,43,27.20
2015,06,27,12,44,27.20
2015,06,27,12,45,27.20
2015,06,27,12,46,27.20
2015,06,27,12,47,27.20
2015,06,27,12,48,27.40
2015,06,27,12,49,27.40
2015,06,27,12,50,27.50
2015,06,27,12,51,27.60
2015,06,27,12,52,27.60
2015,06,27,12,53,27.70
2015,06,27,12,54,27.80
2015,06,27,12,55,27.90
2015,06,27,12,56,28.00
2015,06,27,12,57,28.00
2015,06,27,12,58,28.20
2015,06,27,12,59,28.30
2015,06,27,13,00,28.40
2015,06,27,13,01,28.50
2015,06,27,13,02,28.60
2015,06,27,13,03,28.70
2015,06,27,13,04,28.80
2015,06,27,13,05,28.90
2015,06,27,13,06,28.80
2015,06,27,13,07,28.80
2015,06,27,13,08,28.90
2015,06,27,13,09,29.00
2015,06,27,13,10,29.20
2015,06,27,13,11,29.30
2015,06,27,13,12,29.40
2015,06,27,13,13,29.60
2015,06,27,13,14,29.70
2015,06,27,13,15,29.80
2015,06,27,13,16,29.80
2015,06,27,13,17,29.90
2015,06,27,13,18,29.90
2015,06,27,13,19,29.90
2015,06,27,13,20,29.80
2015,06,27,13,21,29.90
2015,06,27,13,22,29.90
2015,06,27,13,23,29.90
2015,06,27,13,24,30.00
2015,06,27,13,25,30.00
2015,06,27,13,26,30.10
2015,06,27,13,27,30.20
2015,06,27,13,28,30.30
2015,06,27,13,29,30.30
2015,06,27,13,30,30.30
2015,06,27,13,31,30.30
2015,06,27,13,32,30.30
2015,06,27,13,33,30.30
2015,06,27,13,34,30.30
2015,06,27,13,35,30.40
2015,06,27,13,36,30.40
2015,06,27,13,37,30.40
2015,06,27,13,38,30.50
2015,06,27,13,39,30.50
2015,06,27,13,40,30.60
2015,06,27,13,41,30.60
2015,06,27,13,42,30.60
2015,06,27,13,43,30.50
2015,06,27,13,44,30.50
2015,06,27,13,45,30.50
2015,06,27,13,46,30.50
2015,06,27,13,47,30.60
2015,06,27,13,48,30.70
2015,06,27,13,49,30.70
2015,06,27,13,50,30.80
2015,06,27,13,51,30.80
2015,06,27,13,52,30.90
2015,06,27,13,53,30.90
2015,06,27,13,54,31.00
2015,06,27,13,55,31.10
2015,06,27,13,56,31.20
2015,06,27,13,57,31.20
2015,06,27,13,58,31.20
2015,06,27,13,59,31.30
2015,06,27,14,00,31.50
2015,06,27,14,01,31.50
2015,06,27,14,02,31.60
2015,06,27,14,03,31.70
2015,06,27,14,04,31.70
2015,06,27,14,05,31.80
2015,06,27,14,06,31.80
2015,06,27,14,07,31.90
2015,06,27,14,08,32.00
2015,06,27,14,09,32.10
2015,06,27,14,10,32.10
2015,06,27,14,11,32.20
2015,06,27,14,12,32.20
2015,06,27,14,13,32.00
2015,06,27,14,14,31.90
2015,06,27,14,15,31.90
2015,06,27,14,16,31.90
2015,06,27,14,17,31.90
2015,06,27,14,18,32.00
2015,06,27,14,19,32.10
2015,06,27,14,20,32.20
2015,06,27,14,21,32.20
2015,06,27,14,22,32.30
2015,06,27,14,23,32.30
2015,06,27,14,24,32.30
2015,06,27,14,25,32.40
2015,06,27,14,26,32.40
2015,06,27,14,27,32.40
2015,06,27,14,28,32.40
2015,06,27,14,29,32.40
2015,06,27,14,30,32.40
2015,06,27,14,31,32.50
2015,06,27,14,32,32.50
2015,06,27,14,33,32.50
2015,06,27,14,34,32.40
2015,06,27,14,35,32.40
2015,06,27,14,36,32.40
2015,06,27,14,37,32.40
2015,06,27,14,38,32.40
2015,06,27,14,39,32.40
2015,06,27,14,40,32.50
2015,06,27,14,41,32.50
2015,06,27,14,42,32.60
2015,06,27,14,43,32.60
2015,06,27,14,44,32.60
2015,06,27,14,45,32.60
2015,06,27,14,46,32.60
2015,06,27,14,47,32.70
2015,06,27,14,48,32.80
2015,06,27,14,49,32.80
2015,06,27,14,50,32.80
2015,06,27,14,51,32.90
2015,06,27,14,52,32.90
2015,06,27,14,53,32.90
2015,06,27,14,54,32.90
2015,06,27,14,55,33.00
2015,06,27,14,56,33.00
2015,06,27,14,57,33.10
2015,06,27,14,58,33.10
2015,06,27,14,59,33.10
2015,06,27,15,00,33.10
2015,06,27,15,01,33.20
2015,06,27,15,02,33.20
2015,06,27,15,03,33.10
2015,06,27,15,04,33.10
2015,06,27,15,05,33.20
2015,06,27,15,06,33.30
2015,06,27,15,07,33.40
2015,06,27,15,08,33.50
2015,06,27,15,09,33.50
2015,06,27,15,10,33.40
2015,06,27,15,11,33.30
2015,06,27,15,12,33.40
2015,06,27,15,13,33.40
2015,06,27,15,14,33.40
2015,06,27,15,15,33.30
2015,06,27,15,16,33.30
2015,06,27,15,17,33.30
2015,06,27,15,18,33.30
2015,06,27,15,19,33.40
2015,06,27,15,20,33.50
2015,06,27,15,21,33.50
2015,06,27,15,22,33.70
2015,06,27,15,23,33.70
2015,06,27,15,24,33.80
2015,06,27,15,25,33.90
2015,06,27,15,26,33.90
2015,06,27,15,27,34.00
2015,06,27,15,28,34.00
2015,06,27,15,29,34.10
2015,06,27,15,30,34.00
2015,06,27,15,31,34.00
2015,06,27,15,32,33.90
2015,06,27,15,33,33.90
2015,06,27,15,34,33.90
2015,06,27,15,35,33.80
2015,06,27,15,36,33.80
2015,06,27,15,37,33.80
2015,06,27,15,38,33.80
2015,06,27,15,39,33.70
2015,06,27,15,40,33.70
2015,06,27,15,41,33.80
2015,06,27,15,42,33.80
2015,06,27,15,43,33.80
2015,06,27,15,44,33.80
2015,06,27,15,45,33.80
2015,06,27,15,46,33.90
2015,06,27,15,47,33.90
2015,06,27,15,48,34.00
2015,06,27,15,49,34.00
2015,06,27,15,50,33.90
2015,06,27,15,51,33.90
2015,06,27,15,52,33.90
2015,06,27,15,53,33.90
2015,06,27,15,54,33.90
2015,06,27,15,55,33.90
2015,06,27,15,56,33.90
2015,06,27,15,57,34.00
2015,06,27,15,58,34.00
2015,06,27,15,59,34.10
2015,06,27,16,00,34.10
2015,06,27,16,01,34.10
2015,06,27,16,02,34.10
2015,06,27,16,03,34.20
2015,06,27,16,04,34.20
2015,06,27,16,05,34.20
2015,06,27,16,06,34.20
2015,06,27,16,07,34.30
2015,06,27,16,08,34.30
2015,06,27,16,09,34.30
2015,06,27,16,10,34.30
2015,06,27,16,11,34.30
2015,06,27,16,12,34.30
2015,06,27,16,13,34.30
2015,06,27,16,14,34.10
2015,06,27,16,15,34.00
2015,06,27,16,16,33.90
2015,06,27,16,17,33.80
2015,06,27,16,18,33.80
2015,06,27,16,19,33.80
2015,06,27,16,20,33.70
2015,06,27,16,21,33.70
2015,06,27,16,22,33.70
2015,06,27,16,23,33.70
2015,06,27,16,24,33.70
2015,06,27,16,25,33.70
2015,06,27,16,26,33.70
2015,06,27,16,27,33.80
2015,06,27,16,28,33.80
2015,06,27,16,29,33.90
2015,06,27,16,30,33.90
2015,06,27,16,31,33.90
2015,06,27,16,32,33.90
2015,06,27,16,33,34.00
2015,06,27,16,34,34.00
2015,06,27,16,35,34.10
2015,06,27,16,36,34.20
2015,06,27,16,37,34.10
2015,06,27,16,38,34.10
2015,06,27,16,39,34.10
2015,06,27,16,40,34.10
2015,06,27,16,41,34.10
2015,06,27,16,42,34.20
2015,06,27,16,43,34.20
2015,06,27,16,44,34.30
2015,06,27,16,45,34.30
2015,06,27,16,46,34.40
2015,06,27,16,47,34.40
2015,06,27,16,48,34.40
2015,06,27,16,49,34.40
2015,06,27,16,50,34.30
2015,06,27,16,51,34.30
2015,06,27,16,52,34.30
2015,06,27,16,53,34.30
2015,06,27,16,54,34.30
2015,06,27,16,55,34.20
2015,06,27,16,56,34.20
2015,06,27,16,57,34.20
2015,06,27,16,58,34.20
2015,06,27,16,59,34.20
2015,06,27,17,00,34.20
2015,06,27,17,01,34.10
2015,06,27,17,02,34.20
2015,06,27,17,03,34.20
2015,06,27,17,04,34.30
2015,06,27,17,05,34.30
2015,06,27,17,06,34.30
2015,06,27,17,07,34.40
2015,06,27,17,08,34.40
2015,06,27,17,09,34.40
2015,06,27,17,10,34.50
2015,06,27,17,11,34.50
2015,06,27,17,12,34.60
2015,06,27,17,13,34.70
2015,06,27,17,14,34.70
2015,06,27,17,15,34.70
2015,06,27,17,16,34.60
2015,06,27,17,17,34.50
2015,06,27,17,18,34.40
2015,06,27,17,19,34.40